Location: Unspecified
(0.0000°N, 0.0000°E)
Time: 09:38:58
(UTC+00:00)

deb S5M - Pass Details

Date: 23 June 2024
Orbit: 740 x 818 km, 82.5° (Epoch: 18 May)

Event Time Altitude Azimuth Distance (km) Brightness Sun altitude
Exits shadow 03:02:44 15° 96° (E) 2,022 ? -40.4°
Maximum altitude 03:03:01 15° 93° (E) 2,021 ? -40.3°
Drops below altitude 10° 03:06:05 10° 58° (ENE) 2,401 ? -39.6°
Sets 03:09:30 0° 36° (NE) 3,360 ? -38.9°
